DB0TGO-13 Weather Reports


time (UTC)temp
C
wind
direction
speed
KPH
gust
KPH
rain 1hr
cm
rain 24hr
cm
rain mn
cm
humidity
%
barometer
mb
20260904151509 25 280 35.4 0.0 0.00 0.00 0.00 55 998.7
20260904150010 25 250 24.1 0.0 0.00 0.00 0.00 55 998.7
20260904144510 25 250 24.1 0.0 0.00 0.00 0.00 57 998.9
20260904143009 25 240 25.7 0.0 0.00 0.00 0.00 57 998.9
20260904141510 25 240 25.7 0.0 0.00 0.00 0.00 59 999.2
20260904140010 25 240 25.7 0.0 0.00 0.00 0.00 59 999.2
20260904134509 23 240 25.7 0.0 0.00 0.00 0.00 61 999.8
20260904133010 23 240 22.5 0.0 0.00 0.00 0.00 61 999.8
20260904131509 23 230 17.7 0.0 0.00 0.00 0.00 62 1000.4
20260904130009 23 230 17.7 0.0 0.00 0.00 0.00 62 1000.4
20260904124509 23 230 17.7 0.0 0.00 0.00 0.00 62 1000.7
20260904123010 23 230 19.3 0.0 0.00 0.00 0.00 62 1000.7
20260904121509 23 230 19.3 0.0 0.00 0.00 0.00 63 1001.4
20260904120010 23 230 19.3 0.0 0.00 0.00 0.00 63 1001.4
20260904114510 23 230 19.3 0.0 0.00 0.00 0.00 62 1002.0
20260904113009 23 230 17.7 0.0 0.00 0.00 0.00 62 1002.0
20260904111509 22 230 17.7 0.0 0.00 0.00 0.00 65 1002.6
20260904110010 22 230 17.7 0.0 0.00 0.00 0.00 65 1002.6
20260904104510 22 230 17.7 0.0 0.00 0.00 0.00 67 1003.0
20260904103010 22 230 19.3 0.0 0.00 0.00 0.00 67 1003.0
20260904101510 22 230 19.3 0.0 0.00 0.00 0.00 67 1003.3
20260904100011 22 230 20.9 0.0 0.00 0.00 0.00 67 1003.3
20260904094511 22 230 20.9 0.0 0.00 0.00 0.00 67 1003.6
20260904093009 22 240 19.3 0.0 0.00 0.00 0.00 67 1003.6
20260904091510 21 240 19.3 0.0 0.00 0.00 0.00 71 1004.1
20260904090009 21 220 14.5 0.0 0.00 0.00 0.00 71 1004.1
20260904084510 20 220 12.9 0.0 0.00 0.00 0.00 74 1004.3
20260904083009 20 220 12.9 0.0 0.00 0.00 0.00 74 1004.3
20260904081508 18 220 12.9 0.0 0.00 0.00 0.00 77 1005.6
20260904073010 18 210 9.7 0.0 0.00 0.00 0.00 77 1005.6
20260904071509 18 210 9.7 0.0 0.00 0.00 0.00 77 1005.6
20260904070012 18 210 9.7 0.0 0.00 0.00 0.00 77 1005.6
20260904064509 18 210 9.7 0.0 0.00 0.00 0.00 78 1005.9
20260904063010 18 210 11.3 0.0 0.00 0.00 0.00 78 1005.9
20260904061510 18 210 11.3 0.0 0.00 0.00 0.00 79 1006.5
20260904060010 18 220 9.7 0.0 0.00 0.00 0.00 79 1006.5
20260904054510 18 220 9.7 0.0 0.00 0.00 0.00 81 1006.6
20260904053010 18 220 9.7 0.0 0.00 0.00 0.00 81 1006.6
20260904051509 18 210 11.3 0.0 0.00 0.00 0.00 80 1006.5
20260904050009 18 210 11.3 0.0 0.00 0.00 0.00 80 1006.5
20260904044509 17 210 8.0 0.0 0.00 0.00 0.00 80 1007.1
20260904043010 17 210 8.0 0.0 0.00 0.00 0.00 80 1007.1
20260904041510 17 220 6.4 0.0 0.00 0.00 0.00 78 1007.5
20260904040010 17 220 6.4 0.0 0.00 0.00 0.00 78 1007.5
20260904034509 18 240 6.4 0.0 0.00 0.00 0.00 76 1007.8
20260904033010 18 240 6.4 0.0 0.00 0.00 0.00 76 1007.8
20260904031509 18 230 8.0 0.0 0.00 0.00 0.00 76 1007.4
20260904030008 18 230 8.0 0.0 0.00 0.00 0.00 76 1007.4
20260903204510 19 230 12.9 0.0 0.00 0.00 0.00 71 1008.6
20260903203009 19 230 12.9 0.0 0.00 0.00 0.00 71 1008.6
20260903201510 19 230 12.9 0.0 0.00 0.00 0.00 72 1008.5
20260903200009 19 230 11.3 0.0 0.00 0.00 0.00 72 1008.5
20260903194510 19 230 11.3 0.0 0.00 0.00 0.00 75 1008.5
20260903193009 19 240 9.7 0.0 0.00 0.00 0.00 75 1008.5
20260903191509 18 240 9.7 0.0 0.00 0.00 0.00 77 1008.6
20260903190010 18 240 9.7 0.0 0.00 0.00 0.00 77 1008.6
20260903184509 19 240 9.7 0.0 0.00 0.00 0.00 78 1008.6
20260903183009 19 250 9.7 0.0 0.00 0.00 0.00 78 1008.6
20260903181509 18 250 9.7 0.0 0.00 0.00 0.00 81 1008.4
20260903180009 18 250 8.0 0.0 0.00 0.00 0.00 81 1008.4
20260903174509 18 270 6.4 0.0 0.00 0.00 0.00 84 1008.2
20260903173009 18 270 6.4 0.0 0.00 0.00 0.00 84 1008.2
20260903171509 18 270 6.4 0.0 0.00 0.00 0.00 85 1008.3
20260903170009 18 270 6.4 0.0 0.00 0.00 0.00 85 1008.3
20260903164509 18 270 6.4 0.0 0.00 0.00 0.00 85 1008.5
20260903163009 18 240 12.9 0.0 0.00 0.00 0.00 85 1008.5
20260903161509 22 240 12.9 0.0 0.00 0.00 0.00 55 1008.3
20260903160009 22 240 16.1 0.0 0.00 0.00 0.00 55 1008.3
20260903154509 22 250 16.1 0.0 0.00 0.00 0.00 53 1008.4
20260903153010 22 250 16.1 0.0 0.00 0.00 0.00 53 1008.4